Regional Weather Roundup
Issued by NWS

Home | Current Version | Previous Version | Graphics & Text | Print | Product List | Glossary On
Versions: 1 2 3 4 5 6 7 8 9 10 11 12 13 14 15 16 17 18 19 20 21 22 23 24 25 26 27 28 29 30 31 32 33 34 35 36 37 38 39 40 41 42 43 44 45 46 47 48 49 50
000
ASUS43 KLSX 272007
RWRMO

WEATHER SUMMARY FOR MISSOURI
NATIONAL WEATHER SERVICE SPRINGFIELD MO
200 PM CST TUE JAN 27 2015

NOTE: "FAIR" INDICATES FEW OR NO CLOUDS BELOW 12,000 FEET WITH NO
       SIGNIFICANT WEATHER AND/OR OBSTRUCTIONS TO VISIBILITY.
       CURRENT SKY AND/OR WEATHER CONDITIONS ARE NOT AVAILABLE FOR
       CHILLICOTHE AND FARMINGTON.

MOZ001>031-035>038-043-044-053-054-272100-
...NORTHERN AND WESTERN MISSOURI...

CITY           SKY/WX    TMP DP  RH WIND       PRES   REMARKS
KANSAS CTY INT MOSUNNY   53  32  44 S6        30.10F
KANSAS C DTWN  SUNNY     55  31  39 SE3       30.10F
LEE`S SUMMIT   SUNNY     53  29  39 CALM      30.11F
ST JOSEPH      SUNNY     53  32  44 S7        30.10F
CHILLICOTHE      N/A     49  34  56 CALM      30.14F
KIRKSVILLE     PTSUNNY   44  32  62 CALM      30.15F

$$
MOZ066>068-077>081-088>096-101>105-272100-
...SOUTHWEST MISSOURI...

CITY           SKY/WX    TMP DP  RH WIND       PRES   REMARKS
SPRINGFIELD    SUNNY     57  28  33 VRB5      30.12F
JOPLIN         SUNNY     61  30  31 E5        30.12F

$$
MOZ032>034-039>042-045>050-055>058-069>072-272100-
...CENTRAL MISSOURI...

CITY           SKY/WX    TMP DP  RH WIND       PRES   REMARKS
COLUMBIA       SUNNY     48  34  58 VRB3      30.14F
JEFFERSON CITY SUNNY     50  32  50 VRB5      30.14F
ROLLA          SUNNY     49  32  52 MISG      30.11F
SEDALIA        SUNNY     52  33  48 NE3       30.14F
WHITEMAN AFB   SUNNY     50  33  51 VRB3      30.12F
WARRENSBURG    SUNNY     52  32  46 CALM      30.12F
OSAGE BEACH    SUNNY     52  30  43 SW3       30.13F

$$
MOZ051-052-059>065-272100-
...EAST CENTRAL MISSOURI...

CITY           SKY/WX    TMP DP  RH WIND       PRES   REMARKS
ST LOUIS INTL  PTSUNNY   45  30  57 N8        30.16R
SPIRIT OF STL  PTSUNNY   47  31  53 NE8       30.15S
ST CHARLES     CLOUDY    43  31  62 N6        30.15S

$$
MOZ072>076-082>087-097>100-106>115-272100-
...SOUTH CENTRAL AND SOUTHEAST MISSOURI...

CITY           SKY/WX    TMP DP  RH WIND       PRES   REMARKS
CAPE GIRARDEAU PTSUNNY   45  32  60 N9        30.14S
FARMINGTON     MOSUNNY   46  28  49 MISG      30.15S
POPLAR BLUFF   MOSUNNY   51  34  52 VRB3      30.12F
WEST PLAINS    SUNNY     56  30  37 N9        30.11F

$$


USA.gov is the U.S. government's official web portal to all federal, state and local government web resources and services.